DAL2340 KATL-KEWR

Flight info

Callsign DAL2340
Flight time 1h 40m
Altitude 35000
Route PLMMR3 BURGG Q22 UMBRE QUART PHLBO4
Aircraft A321/M-SDE3FGHIRWY/LB1

Departure

Time 2026-05-06 18:43
Airport Hartsfield Jackson Atlanta International Airport (KATL)

Arrival

Time 2026-05-06 20:24
Airport Newark Liberty International Airport (KEWR)
Time Latitude Longitude Altitude Speed Heading
2026-05-06 18:16 33.63917 -84.43542 1007 ft 0 kts 268°
2026-05-06 18:33 33.63917 -84.43534 1006 ft 4 kts 270°
2026-05-06 18:33 33.63917 -84.43502 1006 ft 4 kts 260°
2026-05-06 18:34 33.63926 -84.43473 1006 ft 4 kts 227°
2026-05-06 18:34 33.63947 -84.43459 1006 ft 3 kts 181°
2026-05-06 18:34 33.63953 -84.43459 1006 ft 0 kts 180°
2026-05-06 18:36 33.63944 -84.43459 1006 ft 6 kts 180°
2026-05-06 18:37 33.63864 -84.43458 1006 ft 13 kts 180°
2026-05-06 18:37 33.63805 -84.43458 1006 ft 12 kts 180°
2026-05-06 18:37 33.63693 -84.43454 1006 ft 12 kts 167°
2026-05-06 18:37 33.63616 -84.43424 1006 ft 11 kts 166°
2026-05-06 18:38 33.63581 -84.43333 1005 ft 18 kts 92°
2026-05-06 18:38 33.63583 -84.43175 1006 ft 19 kts 90°
2026-05-06 18:38 33.63581 -84.43024 1006 ft 17 kts 90°
2026-05-06 18:38 33.63581 -84.42884 1006 ft 16 kts 90°
2026-05-06 18:39 33.63581 -84.42758 1006 ft 14 kts 90°
2026-05-06 18:39 33.63581 -84.42647 1007 ft 12 kts 90°
2026-05-06 18:39 33.63581 -84.42549 1007 ft 11 kts 90°
2026-05-06 18:40 33.63582 -84.42222 1007 ft 26 kts 90°
2026-05-06 18:40 33.63581 -84.42008 1007 ft 25 kts 90°
2026-05-06 18:40 33.63580 -84.41799 1006 ft 25 kts 91°
2026-05-06 18:40 33.63581 -84.41600 1006 ft 23 kts 90°
2026-05-06 18:41 33.63581 -84.41408 1005 ft 22 kts 90°
2026-05-06 18:41 33.63580 -84.41227 1006 ft 21 kts 90°
2026-05-06 18:41 33.63580 -84.41057 1006 ft 20 kts 88°
2026-05-06 18:41 33.63579 -84.40947 1006 ft 9 kts 99°
2026-05-06 18:42 33.63537 -84.40911 1007 ft 7 kts 174°
2026-05-06 18:42 33.63495 -84.40918 1007 ft 5 kts 202°
2026-05-06 18:42 33.63471 -84.40983 1007 ft 14 kts 269°
2026-05-06 18:42 33.63470 -84.41185 1005 ft 48 kts 269°
2026-05-06 18:43 33.63470 -84.41850 1007 ft 108 kts 270°
2026-05-06 18:43 33.63468 -84.42954 1007 ft 154 kts 270°
2026-05-06 18:43 33.63460 -84.44340 1317 ft 163 kts 262°
2026-05-06 18:43 33.63497 -84.45608 2214 ft 144 kts 268°
2026-05-06 18:44 33.63513 -84.46394 2634 ft 143 kts 264°
2026-05-06 18:44 33.63394 -84.47617 2916 ft 155 kts 247°
2026-05-06 18:44 33.62886 -84.48834 3067 ft 172 kts 240°
2026-05-06 18:44 33.62303 -84.50176 3197 ft 190 kts 241°
2026-05-06 18:45 33.61671 -84.51655 3319 ft 210 kts 242°
2026-05-06 18:45 33.60966 -84.53318 3522 ft 236 kts 242°
2026-05-06 18:45 33.60212 -84.55113 4138 ft 245 kts 243°
2026-05-06 18:45 33.59420 -84.56945 4890 ft 250 kts 238°
2026-05-06 18:46 33.58104 -84.58304 5612 ft 260 kts 205°
2026-05-06 18:46 33.56298 -84.58703 6398 ft 269 kts 189°
2026-05-06 18:46 33.54403 -84.58754 7113 ft 275 kts 185°
2026-05-06 18:46 33.52487 -84.58692 7852 ft 277 kts 185°
2026-05-06 18:47 33.50550 -84.58607 8582 ft 279 kts 185°
2026-05-06 18:47 33.48596 -84.58358 9318 ft 291 kts 170°
2026-05-06 18:47 33.46808 -84.57096 9971 ft 313 kts 140°
2026-05-06 18:47 33.45631 -84.54798 10289 ft 343 kts 111°
2026-05-06 18:48 33.45163 -84.51887 10424 ft 369 kts 97°
2026-05-06 18:48 33.45097 -84.48744 10754 ft 384 kts 90°
2026-05-06 18:48 33.45233 -84.45532 11322 ft 389 kts 87°
2026-05-06 18:48 33.45415 -84.42285 11928 ft 392 kts 88°
2026-05-06 18:49 33.45621 -84.39013 12522 ft 396 kts 83°
2026-05-06 18:49 33.46219 -84.35777 13161 ft 400 kts 72°
2026-05-06 18:49 33.47272 -84.32685 13776 ft 403 kts 60°
2026-05-06 18:49 33.48786 -84.29860 14330 ft 404 kts 48°
2026-05-06 18:50 33.50661 -84.27424 14857 ft 403 kts 41°
2026-05-06 18:50 33.52635 -84.25020 15418 ft 406 kts 41°
2026-05-06 18:50 33.54622 -84.22611 15967 ft 408 kts 40°
2026-05-06 18:50 33.56633 -84.20175 16505 ft 413 kts 40°
2026-05-06 18:51 33.58659 -84.17716 17022 ft 416 kts 40°
2026-05-06 18:51 33.60701 -84.15233 17516 ft 420 kts 40°
2026-05-06 18:51 33.62760 -84.12718 18031 ft 424 kts 40°
2026-05-06 18:51 33.64833 -84.10176 18521 ft 428 kts 40°
2026-05-06 18:52 33.66918 -84.07615 18980 ft 431 kts 40°
2026-05-06 18:52 33.69019 -84.05033 19443 ft 433 kts 39°
2026-05-06 18:52 33.71131 -84.02441 19893 ft 436 kts 39°
2026-05-06 18:52 33.73262 -83.99826 20344 ft 439 kts 39°
2026-05-06 18:53 33.75403 -83.97202 20800 ft 441 kts 39°
2026-05-06 18:53 33.77560 -83.94560 21241 ft 444 kts 39°
2026-05-06 18:53 33.79729 -83.91901 21680 ft 447 kts 38°
2026-05-06 18:53 33.81912 -83.89220 22133 ft 451 kts 38°
2026-05-06 18:54 33.84112 -83.86508 22537 ft 454 kts 38°
2026-05-06 18:54 33.86322 -83.83778 22959 ft 457 kts 38°
2026-05-06 18:54 33.88550 -83.81028 23374 ft 460 kts 38°
2026-05-06 18:54 33.90791 -83.78265 23762 ft 463 kts 38°
2026-05-06 18:55 33.93049 -83.75481 24109 ft 465 kts 38°
2026-05-06 18:55 33.95280 -83.72642 24445 ft 471 kts 43°
2026-05-06 18:55 33.97285 -83.69474 24781 ft 478 kts 47°
2026-05-06 18:55 33.99259 -83.66249 25132 ft 480 kts 47°
2026-05-06 18:56 34.01246 -83.63004 25471 ft 481 kts 47°
2026-05-06 18:56 34.03240 -83.59758 25815 ft 483 kts 47°
2026-05-06 18:56 34.05221 -83.56533 26167 ft 486 kts 47°
2026-05-06 18:56 34.07262 -83.53204 26450 ft 489 kts 47°
2026-05-06 18:57 34.09259 -83.49943 26795 ft 490 kts 47°
2026-05-06 18:57 34.11286 -83.46628 27137 ft 492 kts 47°
2026-05-06 18:57 34.13322 -83.43298 27444 ft 494 kts 47°
2026-05-06 18:57 34.15363 -83.39956 27757 ft 496 kts 48°
2026-05-06 18:58 34.17410 -83.36600 28064 ft 498 kts 48°
2026-05-06 18:58 34.19467 -83.33226 28381 ft 500 kts 48°
2026-05-06 18:58 34.21532 -83.29836 28693 ft 502 kts 48°
2026-05-06 18:58 34.23602 -83.26434 28992 ft 504 kts 48°
2026-05-06 18:59 34.25680 -83.23016 29282 ft 506 kts 48°
2026-05-06 18:59 34.27764 -83.19577 29547 ft 508 kts 48°
2026-05-06 18:59 34.29850 -83.16124 29851 ft 509 kts 49°
2026-05-06 18:59 34.31945 -83.12660 30107 ft 511 kts 49°
2026-05-06 19:00 34.34059 -83.09190 30330 ft 513 kts 48°
2026-05-06 19:00 34.36190 -83.05715 30554 ft 515 kts 48°
2026-05-06 19:00 34.38334 -83.02233 30782 ft 517 kts 48°
2026-05-06 19:00 34.40481 -82.98736 31036 ft 518 kts 48°
2026-05-06 19:01 34.42623 -82.95234 31358 ft 518 kts 48°
2026-05-06 19:01 34.44761 -82.91728 31678 ft 517 kts 48°
2026-05-06 19:01 34.46897 -82.88218 31974 ft 517 kts 47°
2026-05-06 19:01 34.49032 -82.84707 32285 ft 517 kts 47°
2026-05-06 19:02 34.51162 -82.81200 32599 ft 517 kts 47°
2026-05-06 19:02 34.53293 -82.77683 32950 ft 516 kts 48°
2026-05-06 19:02 34.55413 -82.74179 33330 ft 515 kts 48°
2026-05-06 19:02 34.57531 -82.70681 33671 ft 514 kts 48°
2026-05-06 19:03 34.59648 -82.67187 33979 ft 514 kts 48°
2026-05-06 19:03 34.61735 -82.63739 34234 ft 514 kts 48°
2026-05-06 19:03 34.63877 -82.60194 34470 ft 515 kts 47°
2026-05-06 19:03 34.65966 -82.56733 34694 ft 515 kts 47°
2026-05-06 19:04 34.68110 -82.53163 34914 ft 517 kts 47°
2026-05-06 19:04 34.70185 -82.49666 35016 ft 516 kts 47°
2026-05-06 19:04 34.72287 -82.46081 35050 ft 513 kts 48°
2026-05-06 19:05 34.76370 -82.39061 35053 ft 511 kts 48°
2026-05-06 19:05 34.80481 -82.32006 35035 ft 511 kts 47°
2026-05-06 19:06 34.84601 -82.24956 35040 ft 511 kts 47°
2026-05-06 19:06 34.88723 -82.17900 35037 ft 511 kts 47°
2026-05-06 19:07 34.92843 -82.10836 35035 ft 511 kts 47°
2026-05-06 19:07 34.96949 -82.03764 35024 ft 511 kts 48°
2026-05-06 19:08 35.01050 -81.96679 35041 ft 511 kts 47°
2026-05-06 19:08 35.05170 -81.89608 35028 ft 510 kts 46°
2026-05-06 19:09 35.09442 -81.82709 35018 ft 509 kts 45°
2026-05-06 19:09 35.13778 -81.75875 35009 ft 509 kts 45°
2026-05-06 19:10 35.18079 -81.69000 35013 ft 510 kts 45°
2026-05-06 19:10 35.22340 -81.62062 35042 ft 510 kts 45°
2026-05-06 19:11 35.26590 -81.55114 35008 ft 510 kts 45°
2026-05-06 19:11 35.30855 -81.48170 35007 ft 510 kts 45°
2026-05-06 19:12 35.35121 -81.41234 35006 ft 510 kts 45°
2026-05-06 19:12 35.39379 -81.34282 35009 ft 510 kts 45°
2026-05-06 19:13 35.43630 -81.27317 34991 ft 510 kts 45°
2026-05-06 19:13 35.47881 -81.20339 35023 ft 511 kts 44°
2026-05-06 19:14 35.52135 -81.13352 35016 ft 511 kts 45°
2026-05-06 19:14 35.56390 -81.06344 35010 ft 512 kts 45°
2026-05-06 19:15 35.60612 -80.99375 34995 ft 512 kts 45°
2026-05-06 19:15 35.64862 -80.92344 34998 ft 512 kts 45°
2026-05-06 19:16 35.69109 -80.85312 35008 ft 512 kts 45°
2026-05-06 19:16 35.73350 -80.78275 35019 ft 511 kts 45°
2026-05-06 19:17 35.77573 -80.71245 35017 ft 510 kts 45°
2026-05-06 19:17 35.81796 -80.64217 35009 ft 510 kts 45°
2026-05-06 19:18 35.86009 -80.57189 35002 ft 510 kts 45°
2026-05-06 19:18 35.90216 -80.50143 34996 ft 510 kts 45°
2026-05-06 19:19 35.94421 -80.43088 34998 ft 510 kts 44°
2026-05-06 19:19 35.98629 -80.36027 34988 ft 510 kts 44°
2026-05-06 19:20 36.02830 -80.28965 34986 ft 510 kts 45°
2026-05-06 19:20 36.07034 -80.21901 34978 ft 510 kts 45°
2026-05-06 19:21 36.11232 -80.14825 35002 ft 510 kts 44°
2026-05-06 19:21 36.15423 -80.07747 34991 ft 509 kts 44°
2026-05-06 19:22 36.19611 -80.00679 34991 ft 509 kts 44°
2026-05-06 19:22 36.23791 -79.93590 34988 ft 510 kts 45°
2026-05-06 19:23 36.27962 -79.86491 34982 ft 509 kts 45°
2026-05-06 19:23 36.32126 -79.79390 34998 ft 509 kts 45°
2026-05-06 19:24 36.36290 -79.72289 34988 ft 509 kts 45°
2026-05-06 19:24 36.40454 -79.65191 34980 ft 509 kts 45°
2026-05-06 19:25 36.44604 -79.58081 34980 ft 509 kts 45°
2026-05-06 19:25 36.48725 -79.51003 34976 ft 509 kts 45°
2026-05-06 19:26 36.52867 -79.43876 35004 ft 508 kts 45°
2026-05-06 19:26 36.57004 -79.36745 34952 ft 508 kts 46°
2026-05-06 19:27 36.61138 -79.29608 34950 ft 508 kts 46°
2026-05-06 19:27 36.65266 -79.22456 34950 ft 509 kts 46°
2026-05-06 19:28 36.69397 -79.15297 34956 ft 509 kts 46°
2026-05-06 19:28 36.73527 -79.08126 34989 ft 509 kts 46°
2026-05-06 19:29 36.77652 -79.00938 34971 ft 510 kts 46°
2026-05-06 19:29 36.81771 -78.93724 34969 ft 510 kts 46°
2026-05-06 19:30 36.85884 -78.86498 34972 ft 511 kts 46°
2026-05-06 19:30 36.89987 -78.79261 34968 ft 511 kts 46°
2026-05-06 19:31 36.94083 -78.72003 34992 ft 511 kts 46°
2026-05-06 19:31 37.00227 -78.61109 34975 ft 510 kts 47°
2026-05-06 19:32 37.04303 -78.53847 34973 ft 509 kts 47°
2026-05-06 19:32 37.07684 -78.47817 34964 ft 509 kts 47°
2026-05-06 19:33 37.11747 -78.40566 34960 ft 509 kts 47°
2026-05-06 19:33 37.15808 -78.33302 34975 ft 509 kts 47°
2026-05-06 19:34 37.19857 -78.26013 34945 ft 512 kts 50°
2026-05-06 19:34 37.23395 -78.18198 34930 ft 516 kts 54°
2026-05-06 19:35 37.26880 -78.10317 34903 ft 516 kts 54°
2026-05-06 19:35 37.30374 -78.02426 34920 ft 517 kts 54°
2026-05-06 19:36 37.33869 -77.94531 34957 ft 517 kts 54°
2026-05-06 19:36 37.37424 -77.86676 34939 ft 513 kts 49°
2026-05-06 19:37 37.42046 -77.80126 34933 ft 491 kts 30°
2026-05-06 19:37 37.44768 -77.77612 34930 ft 480 kts 21°
2026-05-06 19:37 37.47584 -77.75361 34924 ft 480 kts 22°
2026-05-06 19:38 37.53220 -77.70824 34924 ft 481 kts 22°
2026-05-06 19:38 37.58855 -77.66267 34941 ft 482 kts 22°
2026-05-06 19:39 37.64502 -77.61705 34933 ft 482 kts 22°
2026-05-06 19:39 37.70153 -77.57127 34931 ft 483 kts 22°
2026-05-06 19:40 37.75801 -77.52525 34932 ft 483 kts 22°
2026-05-06 19:40 37.81447 -77.47930 34934 ft 483 kts 22°
2026-05-06 19:41 37.87100 -77.43337 34926 ft 483 kts 22°
2026-05-06 19:41 37.92749 -77.38737 34925 ft 483 kts 22°
2026-05-06 19:42 37.98400 -77.34115 34920 ft 484 kts 22°
2026-05-06 19:42 38.04058 -77.29477 34893 ft 485 kts 22°
2026-05-06 19:43 38.09732 -77.24833 34882 ft 486 kts 22°
2026-05-06 19:43 38.15376 -77.20209 34876 ft 486 kts 22°
2026-05-06 19:44 38.21091 -77.15512 34899 ft 487 kts 22°
2026-05-06 19:44 38.26746 -77.10860 34880 ft 488 kts 22°
2026-05-06 19:45 38.32398 -77.06005 34880 ft 493 kts 26°
2026-05-06 19:45 38.37887 -77.00701 34881 ft 497 kts 28°
2026-05-06 19:46 38.43329 -76.95250 34883 ft 498 kts 27°
2026-05-06 19:46 38.48833 -76.89865 34872 ft 499 kts 27°
2026-05-06 19:47 38.54381 -76.84534 34860 ft 500 kts 27°
2026-05-06 19:47 38.59943 -76.79184 34871 ft 500 kts 27°
2026-05-06 19:48 38.65496 -76.73798 34884 ft 502 kts 27°
2026-05-06 19:48 38.71062 -76.68375 34861 ft 504 kts 27°
2026-05-06 19:49 38.76636 -76.62929 34871 ft 504 kts 27°
2026-05-06 19:49 38.82220 -76.57481 34902 ft 505 kts 26°
2026-05-06 19:50 38.87805 -76.52009 34877 ft 506 kts 26°
2026-05-06 19:50 38.90605 -76.49263 34596 ft 506 kts 27°
2026-05-06 19:50 38.93404 -76.46513 34061 ft 507 kts 27°
2026-05-06 19:51 38.96208 -76.43756 33358 ft 508 kts 27°
2026-05-06 19:51 38.99006 -76.40996 32726 ft 506 kts 27°
2026-05-06 19:51 39.01795 -76.38247 32200 ft 504 kts 27°
2026-05-06 19:51 39.04517 -76.35474 31588 ft 507 kts 29°
2026-05-06 19:52 39.07194 -76.32524 31061 ft 507 kts 32°
2026-05-06 19:52 39.09841 -76.29420 30481 ft 508 kts 33°
2026-05-06 19:52 39.12370 -76.26354 29924 ft 506 kts 34°
2026-05-06 19:52 39.14921 -76.23229 29327 ft 504 kts 34°
2026-05-06 19:53 39.17456 -76.20149 28778 ft 499 kts 34°
2026-05-06 19:53 39.19990 -76.17127 28239 ft 494 kts 33°
2026-05-06 19:53 39.22520 -76.14161 27662 ft 490 kts 33°
2026-05-06 19:53 39.25038 -76.11237 27198 ft 485 kts 33°
2026-05-06 19:54 39.27539 -76.08337 26679 ft 481 kts 33°
2026-05-06 19:54 39.30005 -76.05465 26299 ft 474 kts 33°
2026-05-06 19:54 39.32430 -76.02622 25889 ft 468 kts 33°
2026-05-06 19:54 39.34823 -75.99807 25486 ft 463 kts 33°
2026-05-06 19:55 39.37189 -75.97018 25085 ft 458 kts 33°
2026-05-06 19:55 39.39527 -75.94260 24691 ft 454 kts 33°
2026-05-06 19:55 39.41851 -75.91518 24279 ft 451 kts 33°
2026-05-06 19:55 39.44156 -75.88794 23905 ft 447 kts 33°
2026-05-06 19:56 39.46447 -75.86086 23519 ft 444 kts 33°
2026-05-06 19:56 39.48720 -75.83400 23086 ft 441 kts 33°
2026-05-06 19:56 39.50977 -75.80727 22713 ft 438 kts 34°
2026-05-06 19:56 39.53219 -75.78071 22300 ft 435 kts 34°
2026-05-06 19:57 39.55442 -75.75433 21955 ft 431 kts 35°
2026-05-06 19:57 39.57643 -75.72820 21581 ft 428 kts 35°
2026-05-06 19:57 39.59825 -75.70221 21228 ft 425 kts 35°
2026-05-06 19:57 39.61997 -75.67633 20838 ft 423 kts 35°
2026-05-06 19:58 39.64154 -75.65062 20478 ft 420 kts 36°
2026-05-06 19:58 39.66295 -75.62507 20114 ft 417 kts 36°
2026-05-06 19:58 39.68418 -75.59970 19755 ft 414 kts 36°
2026-05-06 19:58 39.70528 -75.57441 19318 ft 411 kts 36°
2026-05-06 19:59 39.72617 -75.54932 18905 ft 408 kts 37°
2026-05-06 19:59 39.74694 -75.52431 18490 ft 405 kts 37°
2026-05-06 19:59 39.76750 -75.49951 18061 ft 403 kts 38°
2026-05-06 19:59 39.78787 -75.47488 17789 ft 399 kts 38°
2026-05-06 20:00 39.80817 -75.45036 17396 ft 397 kts 38°
2026-05-06 20:00 39.82833 -75.42599 16993 ft 395 kts 38°
2026-05-06 20:00 39.84842 -75.40173 16600 ft 393 kts 38°
2026-05-06 20:00 39.86840 -75.37758 16202 ft 391 kts 38°
2026-05-06 20:01 39.88833 -75.35347 15798 ft 390 kts 38°
2026-05-06 20:01 39.90814 -75.32947 15402 ft 388 kts 38°
2026-05-06 20:01 39.92790 -75.30553 15001 ft 387 kts 38°
2026-05-06 20:01 39.94755 -75.28168 14618 ft 386 kts 38°
2026-05-06 20:02 39.96717 -75.25783 14251 ft 385 kts 39°
2026-05-06 20:02 39.98671 -75.23408 13824 ft 384 kts 39°
2026-05-06 20:02 40.00618 -75.21037 13409 ft 382 kts 39°
2026-05-06 20:02 40.02555 -75.18675 13016 ft 380 kts 39°
2026-05-06 20:03 40.04476 -75.16330 12631 ft 377 kts 39°
2026-05-06 20:03 40.06383 -75.13996 12251 ft 374 kts 39°
2026-05-06 20:03 40.08275 -75.11680 11892 ft 372 kts 39°
2026-05-06 20:03 40.10159 -75.09375 11510 ft 370 kts 39°
2026-05-06 20:04 40.12008 -75.07117 11144 ft 368 kts 39°
2026-05-06 20:04 40.13876 -75.04835 10561 ft 371 kts 39°
2026-05-06 20:04 40.15816 -75.02464 9949 ft 377 kts 39°
2026-05-06 20:04 40.17694 -75.00158 9826 ft 364 kts 40°
2026-05-06 20:05 40.19483 -74.97954 9682 ft 352 kts 39°
2026-05-06 20:05 40.21232 -74.95795 9527 ft 341 kts 39°
2026-05-06 20:05 40.22945 -74.93685 9225 ft 335 kts 39°
2026-05-06 20:05 40.24637 -74.91602 8812 ft 333 kts 39°
2026-05-06 20:06 40.26302 -74.89502 8475 ft 331 kts 41°
2026-05-06 20:06 40.27892 -74.87343 8188 ft 328 kts 44°
2026-05-06 20:06 40.29432 -74.85164 7997 ft 323 kts 44°
2026-05-06 20:06 40.30939 -74.82997 8003 ft 322 kts 44°
2026-05-06 20:07 40.32453 -74.80822 8004 ft 323 kts 44°
2026-05-06 20:07 40.33969 -74.78658 8029 ft 321 kts 44°
2026-05-06 20:07 40.35491 -74.76503 8007 ft 323 kts 44°
2026-05-06 20:07 40.37018 -74.74347 8000 ft 323 kts 44°
2026-05-06 20:08 40.38550 -74.72192 8001 ft 323 kts 44°
2026-05-06 20:08 40.40078 -74.70036 8001 ft 323 kts 44°
2026-05-06 20:08 40.41733 -74.68074 7978 ft 318 kts 30°
2026-05-06 20:08 40.43659 -74.66704 7522 ft 312 kts 14°
2026-05-06 20:09 40.45709 -74.65943 7205 ft 303 kts
2026-05-06 20:09 40.47688 -74.64963 6878 ft 304 kts 17°
2026-05-06 20:09 40.49617 -74.63858 6536 ft 301 kts 18°
2026-05-06 20:09 40.51521 -74.62757 6196 ft 298 kts 18°
2026-05-06 20:10 40.53407 -74.61665 5985 ft 294 kts 18°
2026-05-06 20:10 40.55276 -74.60588 5981 ft 293 kts 18°
2026-05-06 20:10 40.57145 -74.59502 5985 ft 294 kts 18°
2026-05-06 20:10 40.59019 -74.58427 5983 ft 294 kts 18°
2026-05-06 20:11 40.60897 -74.57345 5987 ft 295 kts 18°
2026-05-06 20:11 40.62788 -74.56274 5984 ft 297 kts 17°
2026-05-06 20:11 40.64677 -74.55193 5982 ft 295 kts 18°
2026-05-06 20:11 40.66559 -74.54107 5985 ft 297 kts 17°
2026-05-06 20:12 40.68444 -74.53002 5988 ft 297 kts 18°
2026-05-06 20:12 40.70326 -74.51891 5991 ft 296 kts 18°
2026-05-06 20:12 40.72214 -74.50807 5985 ft 295 kts 17°
2026-05-06 20:12 40.74088 -74.49712 5999 ft 294 kts 18°
2026-05-06 20:13 40.75948 -74.48639 5989 ft 289 kts 17°
2026-05-06 20:13 40.77785 -74.47553 5993 ft 291 kts 17°
2026-05-06 20:13 40.79643 -74.46477 6005 ft 292 kts 18°
2026-05-06 20:13 40.81505 -74.45410 6005 ft 291 kts 18°
2026-05-06 20:14 40.83353 -74.44370 5753 ft 288 kts 17°
2026-05-06 20:14 40.85195 -74.43329 5380 ft 287 kts 18°
2026-05-06 20:14 40.87035 -74.42296 5046 ft 287 kts 18°
2026-05-06 20:14 40.88877 -74.41274 5003 ft 291 kts 17°
2026-05-06 20:15 40.90734 -74.40230 4992 ft 289 kts 17°
2026-05-06 20:15 40.92586 -74.39169 4997 ft 291 kts 18°
2026-05-06 20:15 40.94438 -74.38052 4906 ft 294 kts 27°
2026-05-06 20:15 40.95924 -74.36206 4584 ft 298 kts 54°
2026-05-06 20:16 40.96671 -74.33674 4239 ft 297 kts 82°
2026-05-06 20:16 40.96928 -74.30977 4001 ft 295 kts 85°
2026-05-06 20:16 40.97100 -74.28248 3993 ft 300 kts 87°
2026-05-06 20:16 40.97240 -74.25492 3993 ft 301 kts 87°
2026-05-06 20:17 40.97383 -74.22744 3997 ft 298 kts 87°
2026-05-06 20:17 40.97522 -74.20017 3995 ft 296 kts 87°
2026-05-06 20:17 40.97641 -74.17301 3993 ft 296 kts 91°
2026-05-06 20:17 40.97274 -74.14670 3598 ft 287 kts 119°
2026-05-06 20:18 40.96331 -74.12375 3227 ft 282 kts 127°
2026-05-06 20:18 40.95657 -74.10915 3036 ft 279 kts 127°
2026-05-06 20:18 40.94560 -74.08813 2988 ft 275 kts 139°
2026-05-06 20:18 40.93048 -74.07348 3004 ft 268 kts 156°
2026-05-06 20:19 40.91401 -74.06246 2984 ft 260 kts 169°
2026-05-06 20:19 40.89649 -74.05748 2998 ft 257 kts 176°
2026-05-06 20:19 40.87874 -74.05423 2989 ft 257 kts 184°
2026-05-06 20:19 40.86156 -74.05740 2994 ft 244 kts 205°
2026-05-06 20:20 40.84641 -74.06641 2989 ft 234 kts 210°
2026-05-06 20:20 40.83179 -74.07587 2864 ft 235 kts 211°
2026-05-06 20:20 40.81707 -74.08533 2593 ft 233 kts 211°
2026-05-06 20:20 40.80260 -74.09456 2294 ft 226 kts 209°
2026-05-06 20:21 40.78892 -74.10326 2006 ft 210 kts 209°
2026-05-06 20:21 40.77632 -74.11129 1752 ft 193 kts 209°
2026-05-06 20:21 40.76485 -74.11861 1525 ft 173 kts 208°
2026-05-06 20:21 40.75477 -74.12503 1297 ft 148 kts 209°
2026-05-06 20:22 40.74589 -74.13071 1094 ft 140 kts 210°
2026-05-06 20:22 40.73729 -74.13620 913 ft 134 kts 211°
2026-05-06 20:22 40.72892 -74.14155 733 ft 134 kts 207°
2026-05-06 20:22 40.72056 -74.14688 538 ft 134 kts 207°
2026-05-06 20:23 40.71215 -74.15225 384 ft 132 kts 206°
2026-05-06 20:23 40.70381 -74.15754 184 ft 134 kts 206°
2026-05-06 20:23 40.69545 -74.16293 36 ft 132 kts 207°
2026-05-06 20:23 40.68837 -74.16737 22 ft 82 kts 205°
2026-05-06 20:24 40.68490 -74.16958 21 ft 34 kts 207°
2026-05-06 20:24 40.68304 -74.17119 22 ft 31 kts 226°
2026-05-06 20:24 40.68201 -74.17297 22 ft 20 kts 236°
2026-05-06 20:24 40.68148 -74.17399 21 ft 9 kts 239°
2026-05-06 20:25 40.68143 -74.17424 22 ft 0 kts 260°
2026-05-06 20:25 40.68144 -74.17435 21 ft 6 kts 275°
2026-05-06 20:25 40.68177 -74.17535 21 ft 14 kts 296°
2026-05-06 20:26 40.68218 -74.17643 22 ft 13 kts 298°
2026-05-06 20:26 40.68278 -74.17718 22 ft 11 kts 320°
2026-05-06 20:26 40.68271 -74.17758 25 ft 4 kts 206°
2026-05-06 20:26 40.68204 -74.17804 23 ft 14 kts 218°
2026-05-06 20:27 40.68205 -74.17915 25 ft 13 kts 294°
2026-05-06 20:27 40.68233 -74.18023 22 ft 12 kts 274°
2026-05-06 20:27 40.68238 -74.18136 22 ft 12 kts 267°
2026-05-06 20:27 40.68234 -74.18249 22 ft 12 kts 273°
2026-05-06 20:28 40.68241 -74.18360 22 ft 12 kts 275°
2026-05-06 20:28 40.68249 -74.18469 22 ft 12 kts 275°
2026-05-06 20:28 40.68243 -74.18576 23 ft 12 kts 246°
2026-05-06 20:28 40.68238 -74.18657 22 ft 9 kts 282°
2026-05-06 20:29 40.68248 -74.18718 25 ft 3 kts 282°
2026-05-06 20:29 40.68249 -74.18724 24 ft 0 kts 282°